2019-093A

Last updated on Sun Jan 19 2020 00:02:03 GMT+0000 (Coordinated Universal Time)

1 44879U 19093A 20018.56977554 .00005369 00000-0 69189-3 0 9992 2 44879 97.9745 95.5265 0016000 163.5667 196.6064 14.81383632 4362
UTC large
Height (km)
Speed (km/s)
/
Latitude / Longitude
Inclination (degrees)
Orbital Period (minutes)
Azimuth
Elevation
Range (km)
Doppler Factor

Next 0 passes for location: London (51.5072 / 0.1276)

Sorry there are no passes over London.